FW4617 Weather Reports


time (UTC)temp
F
wind
direction
speed
knots
gust
knots
rain 1hr
in
rain 24hr
in
rain mn
in
humidity
%
barometer
mb
20260504205017 79 212 4.3 6.1 0.00 0.00 0.00 46 1013.1
20260504204515 78 181 4.3 5.2 0.00 0.00 0.00 46 1013.2
20260504204014 78 176 5.2 6.1 0.00 0.00 0.00 46 1013.3
20260504203511 78 202 6.1 7.0 0.00 0.00 0.00 47 1013.3
20260504203009 79 198 5.2 7.0 0.00 0.00 0.00 45 1013.3
20260504202504 77 171 2.6 4.3 0.00 0.00 0.00 49 1013.2
20260504202001 77 215 4.3 6.1 0.00 0.00 0.00 48 1013.5
20260504201458 78 244 2.6 2.6 0.00 0.00 0.00 45 1013.5
20260504200955 79 224 5.2 7.0 0.00 0.00 0.00 45 1013.4
20260504200452 78 200 5.2 6.1 0.00 0.00 0.00 48 1013.7
20260504195949 77 237 0.9 0.9 0.00 0.00 0.00 47 1013.5
20260504195444 78 219 6.1 7.0 0.00 0.00 0.00 47 1013.7
20260504194941 78 234 5.2 6.1 0.00 0.00 0.00 47 1013.8
20260504194438 78 189 11.3 14.8 0.00 0.00 0.00 46 1013.7
20260504193934 77 193 5.2 6.1 0.00 0.00 0.00 49 1013.8
20260504193431 77 222 3.5 5.2 0.00 0.00 0.00 46 1014.0
20260504192930 78 200 8.7 8.7 0.00 0.00 0.00 46 1014.1
20260504192426 78 164 4.3 5.2 0.00 0.00 0.00 47 1014.2
20260504191926 77 174 7.0 8.7 0.00 0.00 0.00 45 1014.1
20260504191423 77 172 7.8 8.7 0.00 0.00 0.00 45 1014.1
20260504190918 77 225 6.1 7.8 0.00 0.00 0.00 45 1014.3
20260504190414 77 202 6.1 9.6 0.00 0.00 0.00 48 1014.1
20260504185911 78 192 0.9 0.9 0.00 0.00 0.00 48 1014.2
20260504185408 78 220 2.6 2.6 0.00 0.00 0.00 47 1014.1
20260504184904 77 187 4.3 5.2 0.00 0.00 0.00 50 1014.3
20260504184400 77 222 2.6 5.2 0.00 0.00 0.00 46 1014.2
20260504183856 78 292 2.6 2.6 0.00 0.00 0.00 47 1014.2
20260504183354 77 192 0.9 0.9 0.00 0.00 0.00 46 1014.4
20260504182851 79 140 3.5 5.2 0.00 0.00 0.00 47 1014.1
20260504182348 76 221 6.1 7.8 0.00 0.00 0.00 47 1014.6
20260504181845 77 228 4.3 7.8 0.00 0.00 0.00 46 1014.7
20260504181342 76 169 5.2 6.1 0.00 0.00 0.00 52 1014.5
20260504180841 75 224 6.1 7.8 0.00 0.00 0.00 52 1014.7
20260504180339 76 191 6.1 7.0 0.00 0.00 0.00 49 1014.9
20260504175837 75 183 1.7 2.6 0.00 0.00 0.00 48 1014.9
20260504175333 76 215 2.6 2.6 0.00 0.00 0.00 49 1014.8
20260504174832 76 204 4.3 6.1 0.00 0.00 0.00 49 1014.9
20260504174329 76 220 2.6 5.2 0.00 0.00 0.00 52 1015.0
20260504173826 75 185 2.6 5.2 0.00 0.00 0.00 47 1015.0
20260504173322 76 225 7.8 8.7 0.00 0.00 0.00 52 1014.9
20260504172820 78 185 4.3 5.2 0.00 0.00 0.00 54 1015.0
20260504172316 77 196 2.6 2.6 0.00 0.00 0.00 54 1015.3
20260504171812 77 210 0.9 1.7 0.00 0.00 0.00 49 1015.3
20260504171309 76 188 2.6 2.6 0.00 0.00 0.00 51 1015.8
20260504170806 76 184 1.7 2.6 0.00 0.00 0.00 52 1015.5
20260504170303 74 214 6.1 7.8 0.00 0.00 0.00 52 1015.6
20260504160221 72 215 1.7 2.6 0.00 0.00 0.00 56 1016.4
20260504151150 72 204 5.2 6.1 0.00 0.00 0.00 60 1016.5
20260504150647 70 212 2.6 2.6 0.00 0.00 0.00 63 1016.5
20260504150143 69 189 3.5 4.3 0.00 0.00 0.00 63 1016.4
20260504141113 66 206 2.6 2.6 0.00 0.00 0.00 70 1016.9
20260504140609 66 179 0.9 1.7 0.00 0.00 0.00 71 1016.5
20260504140105 65 183 1.7 1.7 0.00 0.00 0.00 72 1016.6
20260504130533 56 194 1.7 1.7 0.00 0.00 0.00 85 1016.9
20260504110421 46 207 0.9 0.9 0.00 0.00 0.00 99 1016.0
20260504100337 47 193 0.0 0.0 0.00 0.00 0.00 99 1016.1
20260504081731 47 213 0.9 0.9 0.00 0.00 0.00 99 1015.9
20260504081227 46 214 0.0 0.0 0.00 0.00 0.00 99 1015.9
20260504080724 46 190 0.0 0.0 0.00 0.00 0.00 99 1015.9
20260504080221 46 186 0.9 0.9 0.00 0.00 0.00 99 1016.1
20260504070148 45 190 0.0 0.0 0.00 0.00 0.00 99 1016.9
20260504060109 46 188 0.0 0.0 0.00 0.00 0.00 99 1017.3
20260504050537 46 198 0.0 0.0 0.00 0.00 0.00 99 1017.8
20260504045531 47 198 0.0 0.0 0.00 0.00 0.00 99 1017.7
20260504045026 47 198 0.0 0.0 0.00 0.00 0.00 99 1017.6
20260504044524 47 198 0.0 0.0 0.00 0.00 0.00 99 1017.8
20260504044020 47 198 0.0 0.0 0.00 0.00 0.00 99 1017.6
20260504043517 48 198 0.0 0.0 0.00 0.00 0.00 99 1017.7
20260504043015 48 198 0.0 0.0 0.00 0.00 0.00 99 1017.9
20260504042512 48 198 0.0 0.0 0.00 0.00 0.00 99 1017.9
20260504042009 48 198 0.0 0.0 0.00 0.00 0.00 99 1017.8
20260504041504 48 198 0.0 0.0 0.00 0.00 0.00 99 1018.0
20260504041000 48 198 0.0 0.0 0.00 0.00 0.00 99 1017.8
20260504040458 49 198 0.0 0.0 0.00 0.00 0.00 99 1017.9
20260504035954 48 198 0.0 0.0 0.00 0.00 0.00 99 1017.7
20260504035452 49 198 0.0 0.0 0.00 0.00 0.00 99 1017.9
20260504034948 49 198 0.0 0.0 0.00 0.00 0.00 99 1017.9
20260504034446 49 198 0.0 0.0 0.00 0.00 0.00 99 1018.0
20260504033942 49 198 0.0 0.0 0.00 0.00 0.00 98 1018.1
20260504033440 49 198 0.0 0.0 0.00 0.00 0.00 98 1018.1
20260504032937 49 198 0.0 0.0 0.00 0.00 0.00 98 1018.0
20260504032434 49 198 0.0 0.0 0.00 0.00 0.00 98 1017.9
20260504031931 50 198 0.0 0.0 0.00 0.00 0.00 98 1018.0
20260504031428 50 198 0.0 0.0 0.00 0.00 0.00 97 1018.1
20260504030925 50 198 0.0 0.0 0.00 0.00 0.00 97 1017.9
20260504030422 50 198 0.0 0.0 0.00 0.00 0.00 96 1017.9
20260504025918 50 198 0.0 0.0 0.00 0.00 0.00 96 1017.8
20260504025415 50 198 0.0 0.0 0.00 0.00 0.00 96 1018.2
20260504024912 51 198 0.0 0.9 0.00 0.00 0.00 96 1017.8
20260504024409 51 198 0.0 0.0 0.00 0.00 0.00 95 1018.0
20260504023906 51 198 0.0 0.0 0.00 0.00 0.00 94 1017.8
20260504023402 51 198 0.0 0.0 0.00 0.00 0.00 94 1018.0
20260504022857 51 198 0.0 0.0 0.00 0.00 0.00 94 1018.0
20260504022354 52 198 0.0 0.0 0.00 0.00 0.00 94 1017.8
20260504021850 52 198 0.0 0.0 0.00 0.00 0.00 92 1017.8
20260504021348 52 198 0.0 0.0 0.00 0.00 0.00 91 1017.8
20260504020845 53 198 0.0 0.0 0.00 0.00 0.00 91 1017.5
20260504020342 53 198 0.0 0.0 0.00 0.00 0.00 90 1017.6
20260504015838 53 198 0.0 0.0 0.00 0.00 0.00 90 1017.6
20260504015334 53 198 0.0 0.0 0.00 0.00 0.00 89 1017.6
20260504014831 54 198 0.0 0.0 0.00 0.00 0.00 88 1017.4
20260504014326 54 198 0.0 0.0 0.00 0.00 0.00 88 1017.4
20260504013824 54 198 0.0 0.0 0.00 0.00 0.00 88 1017.3
20260504013322 55 198 0.0 0.0 0.00 0.00 0.00 86 1017.3
20260504012819 55 198 0.0 0.0 0.00 0.00 0.00 85 1017.3
20260504012316 55 198 0.0 0.0 0.00 0.00 0.00 84 1017.3
20260504011814 56 198 0.0 0.0 0.00 0.00 0.00 83 1017.2
20260504011310 56 198 0.0 0.0 0.00 0.00 0.00 83 1017.2
20260504010806 57 198 0.0 0.0 0.00 0.00 0.00 81 1017.2
20260504010301 57 198 0.0 0.0 0.00 0.00 0.00 81 1017.1
20260504005758 58 198 0.0 0.0 0.00 0.00 0.00 79 1017.0
20260504005255 58 198 0.0 0.0 0.00 0.00 0.00 79 1017.1
20260504004753 59 198 0.0 0.0 0.00 0.00 0.00 77 1016.9
20260504004250 59 198 0.0 0.0 0.00 0.00 0.00 77 1017.0
20260504003746 60 198 0.0 0.0 0.00 0.00 0.00 76 1016.9
20260504003243 61 198 0.0 0.0 0.00 0.00 0.00 76 1017.1
20260504002740 61 198 0.0 0.0 0.00 0.00 0.00 73 1017.1
20260504002237 62 198 0.0 0.0 0.00 0.00 0.00 71 1017.0
20260504001735 63 198 0.0 0.0 0.00 0.00 0.00 69 1017.1
20260504001231 64 198 0.0 0.0 0.00 0.00 0.00 70 1017.1
20260504000728 64 198 0.0 0.0 0.00 0.00 0.00 67 1017.1
20260504000226 66 198 0.0 0.0 0.00 0.00 0.00 66 1017.0
20260503235723 65 213 0.0 0.0 0.00 0.00 0.00 66 1017.0
20260503235220 66 212 0.0 0.0 0.00 0.00 0.00 66 1016.9
20260503234718 66 200 0.0 0.0 0.00 0.00 0.00 65 1016.9
20260503234216 67 200 0.0 0.0 0.00 0.00 0.00 64 1016.9
20260503233713 68 200 0.0 0.0 0.00 0.00 0.00 56 1017.1
20260503233208 68 201 0.0 0.0 0.00 0.00 0.00 55 1017.0
20260503232705 69 186 0.9 0.9 0.00 0.00 0.00 52 1017.1
20260503232202 70 214 0.0 0.0 0.00 0.00 0.00 51 1017.2
20260503231701 70 278 1.7 1.7 0.00 0.00 0.00 46 1017.3
20260503231157 70 281 2.6 2.6 0.00 0.00 0.00 45 1017.6
20260503230653 70 276 1.7 1.7 0.00 0.00 0.00 44 1017.3
20260503230151 70 197 0.9 0.9 0.00 0.00 0.00 46 1017.1
20260503225648 70 199 0.9 0.9 0.00 0.00 0.00 44 1017.4
20260503225148 70 215 1.7 1.7 0.00 0.00 0.00 45 1017.1
20260503224640 70 216 1.7 1.7 0.00 0.00 0.00 44 1017.2
20260503224138 70 288 0.9 1.7 0.00 0.00 0.00 45 1017.3
20260503223635 70 222 0.9 0.9 0.00 0.00 0.00 43 1017.3
20260503223131 70 223 3.5 5.2 0.00 0.00 0.00 46 1017.3
20260503222629 70 199 2.6 2.6 0.00 0.00 0.00 42 1017.3
20260503222126 70 197 2.6 2.6 0.00 0.00 0.00 41 1017.2
20260503221625 71 216 2.6 4.3 0.00 0.00 0.00 41 1017.3
20260503221122 71 326 2.6 4.3 0.00 0.00 0.00 42 1017.5
20260503220618 71 194 2.6 2.6 0.00 0.00 0.00 43 1017.6
20260503220115 71 200 0.9 0.9 0.00 0.00 0.00 41 1017.6
20260503215612 70 295 0.9 2.6 0.00 0.00 0.00 43 1017.5
20260503215108 70 213 1.7 2.6 0.00 0.00 0.00 43 1017.6
20260503214607 71 195 0.0 0.9 0.00 0.00 0.00 41 1017.6
20260503214103 71 198 0.9 0.9 0.00 0.00 0.00 42 1017.6
20260503213602 71 232 2.6 4.3 0.00 0.00 0.00 42 1017.7
20260503213058 71 209 0.9 1.7 0.00 0.00 0.00 43 1017.7
20260503212555 72 212 5.2 7.0 0.00 0.00 0.00 39 1017.9
20260503212053 71 206 0.9 2.6 0.00 0.00 0.00 44 1018.1
20260503211550 72 215 1.7 1.7 0.00 0.00 0.00 41 1018.2
20260503211045 73 255 3.5 5.2 0.00 0.00 0.00 41 1018.4
20260503210542 72 222 0.0 0.9 0.00 0.00 0.00 41 1018.1
20260503210038 71 210 1.7 1.7 0.00 0.00 0.00 40 1018.0
20260503205535 71 239 0.9 1.7 0.00 0.00 0.00 45 1018.3